Regional Weather Roundup
Issued by NWS

Home | Current Version | Previous Version | Graphics & Text | Print | Product List | Glossary Off
Versions: 1 2 3 4 5 6 7 8 9 10 11 12 13 14 15 16 17 18 19 20 21 22 23 24 25 26 27 28 29 30 31 32 33 34 35 36 37 38 39 40 41 42 43 44 45 46 47 48 49 50

000
ASUS43 KMKX 192100
RWRWI

WISCONSIN REGIONAL WEATHER ROUNDUP
NATIONAL WEATHER SERVICE MILWAUKEE/SULLIVAN WI
400 PM CDT THU APR 19 2018

NOTE: "FAIR" INDICATES FEW OR NO CLOUDS BELOW 12,000 FEET WITH NO
SIGNIFICANT WEATHER AND/OR OBSTRUCTIONS TO VISIBILITY.

WIZ001-002-006>008-014>016-023>028-192200-
NORTHWEST WISCONSIN

CITY           SKY/WX    TMP DP  RH WIND       PRES   REMARKS
SUPERIOR ARPT  FAIR      56  17  21 W7        30.40F
ASHLAND        FAIR      52   9  17 SW8       30.41S
HAYWARD        FAIR      53  13  20 VRB5      30.40F
SIREN          FAIR      53  15  22 W12       30.42F
CUMBERLAND     FAIR      46  16  29 W6        30.43S
RICE LAKE      FAIR      49  16  26 SW8       30.45S
CHETEK         FAIR      50  17  26 NW5       30.44S
LADYSMITH      FAIR      51  16  25 NW7       30.42F
EAU CLAIRE     NOT AVBL
MENOMONIE      FAIR      50  19  28 W12       30.45F
NEW RICHMOND   FAIR      48  16  27 NW5       30.46F
OSCEOLA        FAIR      51  18  27 NW7       30.48F
$$

WIZ003>005-009-010-017-018-192200-
NORTH CENTRAL WISCONSIN

CITY           SKY/WX    TMP DP  RH WIND       PRES   REMARKS
MANITOWISH WTR FAIR      49   8  19 N7        30.37F
ARBOR VITAE    FAIR      51  14  22 N9        30.37S
WOODRUFF       FAIR      51  14  22 N9        30.37S
RHINELANDER    FAIR      52   8  17 NW5       30.36F
EAGLE RIVER    FAIR      49   1  14 N9        30.36S
LAND O LAKES   FAIR      49   2  15 N10       30.38S
PHILLIPS       FAIR      49  11  22 N3        30.38S
TOMAHAWK       FAIR      53   5  14 N5        30.37S
MEDFORD        FAIR      48  13  23 NW6       30.38S
MERRILL          N/A     53  11  18 NW7       30.37S
$$

WIZ029-030-035-036-043>047-192200-
CENTRAL WISCONSIN

CITY           SKY/WX    TMP DP  RH WIND       PRES   REMARKS
WAUSAU         FAIR      47  21  35 W14       30.36S
MOSINEE        MOSUNNY   46  21  36 W13       30.39S
MARSHFIELD     FAIR      46  20  35 W10       30.39S
STEVENS POINT  FAIR      46  21  37 W9G17     30.39S
WAUPACA        FAIR      52  19  26 W14       30.37S
WAUTOMA        FAIR      49  17  28 NW12      30.40R
WISC RAPIDS    LGT RAIN  49  17  28 N12       30.41S
CAMP DOUGLAS   FAIR      48  24  39 W10       30.42R
$$

WIZ011>013-019>022-031-037>040-048>050-192200-
NORTHEAST WISCONSIN

CITY           SKY/WX    TMP DP  RH WIND       PRES   REMARKS
ANTIGO         FAIR      49  12  22 NW6       30.35S
SHAWANO        FAIR      58   5  12 CALM      30.33S
OCONTO         FAIR      53   9  17 NW6       30.34S
STURGEON BAY   FAIR      48  10  21 N7        30.35R
GREEN BAY      FAIR      49  20  31 SW9       30.35S
MANITOWOC      FAIR      48  20  32 W7        30.36S
APPLETON       MOSUNNY   52  12  20 W6        30.34S
CLINTONVILLE   FAIR      54  10  17 W6        30.34S
OSHKOSH        FAIR      46  25  43 S7        30.37S
$$

WIZ032>034-041-042-053>061-192200-
SOUTHWEST WISCONSIN

CITY           SKY/WX    TMP DP  RH WIND       PRES   REMARKS
LA CROSSE      FAIR      50  28  42 NW9       30.46S
SPARTA         FAIR      48  21  34 W9        30.45S
VIROQUA        FAIR      45  24  44 NW8       30.44S
BOSCOBEL       FAIR      49  24  37 NW8       30.46R
PRAIRIE DU CHI FAIR      47  24  41 W9        30.47R
PLATTEVILLE    FAIR      49  30  49 W12       30.44S
$$

WIZ056-057-062-063-064-067-068-192200-
SOUTH CENTRAL WISCONSIN

CITY           SKY/WX    TMP DP  RH WIND       PRES   REMARKS
REEDSBURG      FAIR      46  25  45 NW8       30.42S
BARABOO/DELLS  FAIR      46  22  38 W10       30.41S
LONE ROCK      NOT AVBL
MINERAL POINT  FAIR      48  30  49 W12       30.42S
MADISON        FAIR      47  23  38 NW8       30.41S
MIDDLETON      FAIR      48  25  40 NW12      30.41F
WATERTOWN      FAIR      44  26  48 W7        30.41R
MONROE         FAIR      48  27  43 NW9       30.41S
JANESVILLE     SUNNY     52  19  28 NW12      30.41R
$$

WIZ051-052-058>065-066-070>072-192200-
SOUTHEAST WISCONSIN

CITY           SKY/WX    TMP DP  RH WIND       PRES   REMARKS
MILWAUKEE      FAIR      49  21  33 NW10      30.39R
WAUKESHA       SUNNY     43  21  42 NW9       30.40R
MILWAUKEE/TIMM SUNNY     45  16  31 NW9G16    30.40R
RACINE         FAIR      48  23  37 NW8       30.40R
BURLINGTON     FAIR      45  25  46 W10       30.40R
KENOSHA        FAIR      47  27  45 NW10      30.39R
FOND DU LAC    FAIR      47  21  35 SW9       30.38R
SHEBOYGAN      FAIR      47  22  37 W9        30.37R
WEST BEND      FAIR      45  19  36 NW10      30.38S
JUNEAU         FAIR      42  27  55 SW7       30.41S
$$

LSZ147-162-192200-
LAKE SUPERIOR

STATION/POSITION TIME  TEMP    WIND        PRES    WAVE
                       AIR SEA DIR/SP/G            HT/PER
                 (UTC) (F)     (DEG/KT/KT) (MB)    (FT/S)
DEVILS ISLAND    2000   43     230/  9/ 11 1030.6F
SAXON HARBOR     2030   45      60/  6/  6 1029.5F
$$

LMZ867-665-643>646-192200-
LAKE MICHIGAN

STATION/POSITION TIME  TEMP    WIND        PRES    WAVE
                       AIR SEA DIR/SP/G            HT/PER
                 (UTC) (F)     (DEG/KT/KT) (MB)    (FT/S)
NORTHPORT PIER   2040   39                 1027.1S
KEWAUNEE LAKESHO 2030   51     330/  6/ 10 1026.6F
SHEBOYGAN LAKESH 2000   46     350/ 13/ 18 1028.5S
PORT WASHINGTON  2040   49     300/  7/ 11 1029.5S
MILWAUKEE LAKESH 2030   39      60/  5/  7   N/A
KENOSHA   LAKESH 2000   46                 1028.8
$$

TC  - TEMPERATURE IN CELSIUS
VSB - VISIBILITY IN STATUTE MILES
WCI - WIND CHILL INDEX
HX  - HEAT INDEX




USA.gov is the U.S. government's official web portal to all federal, state and local government web resources and services.